Location: Devore Heights
(34.2372°N, 117.4156°W)
Time: 19:50:42
(UTC+00:00)

S-56A Canister/Altair - Pass Details

Date: 20 September 2024
Orbit: 636 x 2487 km, 38.9° (Epoch: 14 October)

Event Time Altitude Azimuth Distance (km) Brightness Sun altitude
Rises 03:05:30 0° 280° (W) 3,179 12.5 -16.4°
Reaches altitude 10° 03:07:38 10° 285° (WNW) 2,386 11.4 -16.8°
Maximum altitude 03:13:08 59° 5° (N) 1,165 8.4 -17.9°
Enters shadow 03:17:56 24° 76° (ENE) 2,336 9.5 -18.9°
Drops below altitude 10° 03:21:16 10° 84° (E) 3,482 - -19.5°
Sets 03:25:00 0° 88° (E) 4,776 - -20.3°
